Flag for San Marino Weather past 2 weeks in San Marino, San Marino

Now
72 °F

Clear.


Feels Like: 65 °F
Forecast: 54 / 69 °F
Wind: N/A

Location: Rimini Airport

Current Time: Aug 23, 2014 at 9:54:31 PM

Latest Report: Aug 23, 2014 at 9:15 PM


Visibility: 10 mi

Pressure: 29.89 "Hg

Humidity: 100%

Dew point: 72 °F

Location of San MarinoLocation

Historic Weather in San Marino — Graph

°F

San Marino temperature yesterday

Maximum temperature yesterday: 79 °F (at 11:15 AM)
Minimum temperature yesterday: 64 °F (at 7:15 AM)
Average temperature yesterday: 74 °F

Past Weeks' High & Low Weather Summary

 TemperatureHumidityPressure
High91 °F (Aug 13, 3:45 PM)100% (Aug 9, 7:45 AM)30.07 "Hg (Aug 9, 7:45 AM)
Low61 °F (Aug 16, 5:15 AM)43% (Aug 14, 1:15 PM)29.65 "Hg (Aug 13, 6:45 PM)
Average77 °F79%29.90 "Hg
* Reported Aug 8 8:15 PM — Aug 23 8:15 PM, San Marino, Weather by CustomWeather, © 2014

Note: Actual official high and low records may vary slightly from our data, if they occured in-between our weather recording intervals... More about our weather records

Advertising

San Marino weather history for previous 24 hours

 ConditionsComfort  
Time TempWeatherWind HumidityBarometerVisibility
8:15 PM
Aug 23
73 °FPassing clouds.N/A94%29.86 "HgN/A
7:45 PM75 °FScattered clouds.N/A89%29.86 "HgN/A
7:15 PM77 °FScattered clouds.N/A79%29.86 "HgN/A
6:45 PM77 °FScattered clouds.N/A79%29.86 "HgN/A
6:15 PM77 °FScattered clouds.N/A79%29.86 "HgN/A
5:45 PM77 °FScattered clouds.N/A79%29.86 "HgN/A
5:15 PM79 °FLight rain. Scattered clouds.N/A74%29.86 "HgN/A
4:45 PM79 °FScattered clouds.N/A70%29.86 "HgN/A
4:15 PM79 °FScattered clouds.N/A70%29.86 "HgN/A
3:45 PM79 °FScattered clouds.N/A74%29.86 "HgN/A
3:15 PM77 °FScattered clouds.N/A83%29.89 "HgN/A
2:45 PM75 °FScattered clouds.N/A89%29.89 "HgN/A
2:15 PM75 °FBroken clouds.N/A94%29.89 "HgN/A
1:45 PM75 °FLight rain. Broken clouds.N/A100%29.89 "HgN/A
1:15 PM75 °FLight rain. Broken clouds.N/A100%29.89 "HgN/A
12:45 PM75 °FBroken clouds.N/A94%29.89 "HgN/A
12:15 PM75 °FLight rain. Broken clouds.N/A100%29.89 "HgN/A
11:45 AM73 °FLight rain. Broken clouds.N/A100%29.92 "HgN/A
11:15 AM73 °FLight rain. Broken clouds.N/A89%29.92 "HgN/A
10:45 AM75 °FLight rain. Broken clouds.N/A83%29.92 "HgN/A
10:15 AM75 °FLight rain. Broken clouds.N/A83%29.89 "HgN/A
9:45 AM75 °FLight rain. Broken clouds.N/A78%29.89 "HgN/A
9:15 AM75 °FBroken clouds.N/A78%29.89 "HgN/A
8:45 AM75 °FBroken clouds.N/A83%29.89 "HgN/A
8:15 AM72 °FBroken clouds.N/A94%29.92 "HgN/A
7:45 AM72 °FScattered clouds.N/A94%29.89 "HgN/A
7:15 AM72 °FPassing clouds.N/A94%29.89 "HgN/A
6:45 AM72 °FPassing clouds.N/A94%29.89 "HgN/A
6:15 AM72 °FPassing clouds.N/A100%29.89 "HgN/A
5:45 AM72 °FLight rain. Passing clouds.N/A100%29.92 "HgN/A
5:15 AM72 °FLight rain. Passing clouds.N/A100%29.92 "HgN/A
4:45 AM72 °FLight rain. Passing clouds.N/A100%29.92 "HgN/A
2:45 AM72 °FClear.N/A83%29.92 "Hg10 mi
2:15 AM72 °FClear.N/A83%29.92 "Hg10 mi
1:15 AM72 °FClear.N/A88%29.92 "Hg10 mi
12:45 AM72 °FClear.N/A88%29.92 "Hg10 mi
12:15 AM72 °FClear.N/A94%29.92 "Hg10 mi
11:45 PM
Aug 22
73 °FClear.N/A89%29.92 "Hg10 mi
11:15 PM73 °FClear.N/A94%29.92 "Hg10 mi
10:45 PM75 °FClear.N/A94%29.92 "Hg10 mi
10:15 PM77 °FClear.N/A94%29.92 "Hg10 mi
9:45 PM75 °FClear.N/A94%29.92 "Hg10 mi
9:15 PM77 °FClear.N/A94%29.92 "Hg10 mi
Weather by CustomWeather, © 2014

See weather overviewHow to use our weather pages